Regional Weather Roundup
Issued by NWS

Home | Current Version | Previous Version | Graphics & Text | Print | Product List | Glossary Off
Versions: 1 2 3 4 5 6 7 8 9 10 11 12 13 14 15 16 17 18 19 20 21 22 23 24 25 26 27 28 29 30 31 32 33 34 35 36 37 38 39 40 41 42 43 44 45 46 47 48 49 50

829
ASUS43 KLSX 251557
RWRMO

WEATHER SUMMARY FOR MISSOURI
NATIONAL WEATHER SERVICE SPRINGFIELD MO
1000 AM CST SUN FEB 25 2018

NOTE: "FAIR" INDICATES FEW OR NO CLOUDS BELOW 12,000 FEET WITH NO
       SIGNIFICANT WEATHER AND/OR OBSTRUCTIONS TO VISIBILITY.
       CURRENT SKY AND/OR WEATHER CONDITIONS ARE NOT AVAILABLE FOR
       CHILLICOTHE AND FARMINGTON.

MOZ001>031-035>038-043-044-053-054-251700-
...NORTHERN AND WESTERN MISSOURI...

CITY           SKY/WX    TMP DP  RH WIND       PRES   REMARKS
KANSAS CTY INT MOSUNNY   36  26  67 SW12      30.06R WCI  28
LEE`S SUMMIT   SUNNY     38  25  59 SW13      30.08R WCI  30
ST JOSEPH      SUNNY     34  28  79 S6        30.05R WCI  29
CHILLICOTHE      N/A     36  24  62 SW9       30.05R WCI  29

$$
MOZ066>068-077>081-088>096-101>105-251700-
...SOUTHWEST MISSOURI...

CITY           SKY/WX    TMP DP  RH WIND       PRES   REMARKS
SPRINGFIELD    SUNNY     42  29  59 S6        30.10R
JOPLIN         SUNNY     42  33  70 CALM      30.11S
BRANSON        MOSUNNY   41  32  70 CALM      30.12S

$$
MOZ032>034-039>042-045>050-055>058-069>072-251700-
...CENTRAL MISSOURI...

CITY           SKY/WX    TMP DP  RH WIND       PRES   REMARKS
COLUMBIA       NOT AVBL
JEFFERSON CITY SUNNY     39  25  57 VRB5      30.11R
ROLLA          SUNNY     39  30  70 SW5       30.11R
SEDALIA        SUNNY     39  31  72 S9        30.11R
WARRENSBURG    SUNNY     37  28  70 SW7       30.10R

$$
MOZ051-052-059>065-251700-
...EAST CENTRAL MISSOURI...

CITY           SKY/WX    TMP DP  RH WIND       PRES   REMARKS
ST LOUIS INTL  MOSUNNY   42  29  59 W7        30.10R

$$
MOZ072>076-082>087-097>100-106>115-251700-
...SOUTH CENTRAL AND SOUTHEAST MISSOURI...

CITY           SKY/WX    TMP DP  RH WIND       PRES   REMARKS
CAPE GIRARDEAU FAIR      44  32  62 W5        30.15R
POPLAR BLUFF   FAIR      45  33  63 SW5       30.16R
WEST PLAINS    SUNNY     41  31  67 CALM      30.13R

$$



USA.gov is the U.S. government's official web portal to all federal, state and local government web resources and services.